Wind_Speed
62 62 62 62 62 62 63 62 61 60 61 61 60 58 58 57 57 56 55 54 53 53 52 52 51 51 51 52 52 52 52 53 53 52 52 51 49 47 45 44 43 41 40 40 39 38 38 37 38 38 38 39 39 40 39 39 38 38 39 41 43 44 44 44 44 45 45 46 46 46 47 47 48 47 46 46 47 48 49 51 54 57 59 61 63 64
62 63 63 62 62 62 63 62 60 59 58 58 58 57 56 56 55 55 54 53 52 52 52 52 52 52 52 52 53 53 53 53 52 51 50 48 46 45 44 42 42 41 40 39 39 38 37 37 36 36 36 35 35 35 35 34 34 35 37 38 40 42 43 43 45 46 47 47 47 48 49 49 50 49 48 48 48 49 51 53 56 59 61 63 64 63
62 63 63 62 61 60 61 61 59 58 56 56 56 56 55 54 54 54 53 52 52 52 52 52 52 53 53 53 53 52 52 51 50 49 47 46 45 44 43 42 41 40 40 39 39 38 37 37 36 35 34 33 32 32 31 30 32 34 36 37 39 40 40 42 43 45 47 48 49 51 52 53 55 55 54 53 53 53 54 56 58 61 62 63 63 61
61 61 62 61 60 59 58 57 57 56 55 55 55 54 54 53 53 53 52 52 52 52 53 53 53 54 54 53 52 51 50 49 48 47 46 45 44 43 42 41 41 40 39 39 38 38 37 37 36 34 33 32 30 30 29 30 32 34 36 37 38 39 40 40 42 43 45 47 50 52 54 56 58 59 60 60 59 59 59 60 62 63 63 62 60 58
60 59 59 59 58 57 56 55 54 54 55 54 54 53 53 53 53 53 53 53 53 54 54 54 54 53 53 52 51 50 48 47 46 46 45 44 43 42 41 40 39 39 38 37 37 37 36 36 35 34 32 31 30 30 31 32 34 35 37 38 39 40 41 42 43 44 46 48 50 52 54 56 58 59 61 62 63 63 64 64 64 64 62 60 57 55
59 57 55 55 54 54 54 54 54 54 54 54 54 53 53 53 53 54 54 54 54 55 54 54 53 52 51 50 49 48 47 46 45 44 43 42 41 40 39 38 37 37 36 36 35 34 34 34 33 32 30 30 31 33 35 35 36 37 39 41 42 43 44 45 46 47 48 50 51 52 53 54 55 57 58 60 61 63 64 64 64 62 60 57 53 51
57 55 53 51 52 53 53 53 54 54 54 54 54 54 54 54 54 55 55 55 55 55 54 53 52 51 50 49 48 47 46 45 44 43 42 41 40 39 38 37 37 36 35 34 34 33 32 31 30 29 28 30 34 36 37 37 37 38 40 42 44 45 47 48 49 50 50 51 52 53 53 54 55 55 56 56 57 59 59 60 59 57 55 52 49 47
55 54 52 50 51 53 54 54 53 53 53 53 54 55 55 55 54 54 54 54 54 54 53 52 51 50 49 48 47 46 45 45 44 43 42 41 41 40 39 38 37 36 35 35 34 33 32 30 29 29 30 33 35 37 37 37 38 38 40 41 43 45 46 48 49 50 51 51 52 53 53 54 54 55 55 55 55 55 55 55 54 52 50 47 45 44
51 51 51 51 51 52 53 54 53 52 52 53 54 55 56 56 55 54 53 53 53 53 53 52 51 50 48 47 46 45 45 44 44 43 43 42 42 41 40 39 38 37 36 35 34 33 32 31 31 31 32 34 35 36 36 37 37 38 39 40 41 42 44 45 47 48 49 50 51 52 52 53 53 53 53 53 52 52 52 51 50 48 46 44 43 42
48 49 50 51 51 51 51 52 52 52 52 53 54 55 56 56 56 55 54 53 52 51 51 51 51 49 48 47 46 45 45 45 44 43 43 42 41 41 40 39 38 37 36 35 34 34 33 33 34 34 34 35 35 35 36 36 37 37 38 38 39 40 41 42 43 45 46 47 48 49 49 50 50 50 50 50 49 49 49 48 47 45 43 42 41 41
48 48 49 50 50 51 50 51 53 53 53 54 54 54 54 54 56 57 57 55 52 51 50 49 49 49 48 48 47 46 46 45 44 43 42 41 40 39 39 38 38 37 36 35 35 34 34 35 35 36 36 36 36 36 36 36 37 37 37 38 38 38 39 39 40 41 42 43 44 45 45 46 46 46 46 45 45 45 44 43 42 41 40 40 40 41
47 48 48 49 50 51 52 53 53 54 53 54 55 55 54 53 53 54 56 55 53 51 49 49 48 48 48 48 47 46 45 44 43 42 41 40 39 38 38 38 37 36 36 35 35 34 34 34 35 35 36 36 36 36 36 36 37 37 37 37 37 37 38 38 39 39 40 40 41 41 42 42 41 41 41 40 40 39 39 38 38 38 38 39 40 41
47 47 48 50 51 52 53 54 54 54 54 54 56 57 56 53 51 51 52 51 50 49 49 49 48 47 46 46 45 45 44 43 42 41 40 39 39 38 38 38 37 36 35 35 34 33 33 33 33 34 34 35 35 36 36 36 36 36 36 37 37 37 37 38 38 38 38 38 39 39 39 37 36 36 36 36 36 36 35 35 35 36 37 38 40 41
47 48 50 51 52 53 54 54 55 56 56 55 55 55 53 51 50 49 48 48 48 47 48 48 48 47 45 43 42 42 42 42 41 40 39 38 38 38 38 38 37 36 35 34 33 32 32 32 32 32 33 33 34 34 35 35 35 35 36 36 36 36 37 37 37 37 37 37 36 35 34 34 34 35 36 36 35 35 34 34 34 35 36 37 39 40
48 50 52 53 54 54 54 55 56 56 55 53 52 51 50 48 47 46 46 46 46 46 46 47 46 45 43 41 40 40 40 41 40 40 39 38 37 36 37 37 36 35 34 33 33 32 31 31 31 31 31 31 32 32 33 33 33 34 34 34 35 35 36 36 36 36 35 34 33 33 34 35 37 38 38 38 37 36 35 35 35 35 36 37 39 40
49 51 53 54 55 55 55 55 56 55 53 51 49 47 46 45 44 44 44 45 45 45 45 45 45 44 41 38 37 38 40 40 41 40 40 39 37 36 36 37 36 35 34 33 33 32 31 30 30 30 30 30 30 30 30 31 31 32 32 33 33 34 34 35 35 34 34 33 33 34 37 40 41 42 41 40 39 39 38 37 37 37 38 39 40 41
50 51 53 55 56 56 55 54 53 52 50 48 46 44 43 43 43 43 44 44 44 44 43 44 44 44 42 39 37 37 39 41 41 42 41 40 38 36 36 36 37 36 35 34 33 32 31 30 29 29 28 28 28 28 28 28 29 29 30 31 32 32 33 34 35 35 35 35 36 38 41 43 44 44 42 41 41 41 41 40 41 41 41 42 43 44
51 52 53 55 55 55 54 52 50 47 45 44 43 42 42 42 42 42 42 42 42 43 43 42 43 44 44 42 40 38 39 41 42 43 43 42 39 37 36 36 37 37 36 35 33 32 31 29 28 27 26 26 26 25 26 26 27 27 28 29 30 31 32 34 35 36 37 39 40 42 43 44 44 44 43 42 42 42 43 43 43 43 44 45 45 46
52 52 53 54 54 52 50 47 45 43 41 41 41 42 42 42 41 41 41 41 41 42 42 43 43 43 44 44 42 40 40 41 43 44 44 43 41 38 37 37 37 37 36 34 32 31 30 29 27 26 25 24 24 24 24 24 25 26 26 27 28 30 31 33 35 36 38 40 42 43 44 44 44 44 44 43 43 43 44 45 45 45 46 46 47 47
52 52 51 51 50 48 45 42 40 39 39 39 40 40 41 41 40 40 40 40 41 41 42 43 44 44 44 44 43 42 41 42 43 44 44 43 41 39 37 38 38 38 36 33 32 31 30 29 28 26 25 24 23 23 23 23 24 24 25 26 27 29 30 32 34 36 38 40 42 43 44 44 45 45 45 45 45 45 45 46 46 47 47 48 48 47
51 50 47 45 44 43 41 39 38 37 37 37 38 39 40 40 40 40 40 40 41 42 43 44 44 44 44 44 44 43 42 42 43 44 44 43 41 39 38 38 38 37 35 33 31 31 31 30 28 27 25 24 23 22 22 22 23 23 24 25 26 27 29 30 32 34 37 39 41 42 44 45 45 45 46 46 46 46 46 47 47 48 48 48 48 46
47 45 42 39 38 38 38 37 37 36 36 36 37 38 39 40 40 40 41 41 42 43 43 44 44 45 45 45 44 43 42 42 43 43 44 43 42 39 37 38 38 37 35 33 32 31 31 30 29 27 25 24 23 22 22 22 22 22 23 24 25 26 27 28 30 32 34 37 39 41 42 44 45 45 46 46 47 47 47 48 48 48 49 49 47 45
42 40 38 36 35 35 36 36 36 35 35 35 36 37 38 39 40 41 41 42 42 43 44 44 45 45 45 45 44 43 42 42 42 42 43 43 42 39 37 37 38 37 36 34 34 33 32 30 29 27 25 24 23 22 21 21 21 21 22 22 23 24 26 27 29 30 32 34 36 38 40 41 43 44 46 46 47 47 48 48 49 49 49 48 47 44
37 36 35 34 34 34 34 35 34 34 34 34 35 36 37 38 39 41 41 42 43 43 44 45 45 44 44 44 43 43 41 41 41 41 42 42 41 39 37 37 38 38 36 35 35 35 33 31 28 27 25 24 22 21 20 20 20 20 21 21 22 24 25 26 28 29 31 32 34 35 37 39 41 42 44 46 47 47 48 49 49 50 50 48 46 43
33 33 33 33 33 33 33 33 33 33 33 34 35 36 37 38 39 40 41 41 42 43 43 44 44 44 43 43 42 41 40 39 39 40 41 41 41 39 37 37 38 38 37 36 35 35 34 31 28 26 25 24 22 21 20 20 20 20 20 21 22 23 24 26 27 29 30 32 33 34 36 37 39 41 43 44 46 47 48 49 50 50 50 48 45 43
32 32 32 32 32 31 31 31 31 32 32 33 34 36 37 38 39 39 40 40 40 41 42 42 43 43 42 42 41 40 39 38 37 38 39 40 40 39 37 36 38 39 38 37 36 35 34 31 29 27 25 24 22 20 19 19 19 19 19 20 21 22 23 24 26 28 30 31 33 34 36 37 39 40 42 44 45 47 48 49 50 51 51 49 47 46
31 31 31 30 30 30 30 30 30 31 32 32 33 34 35 37 38 38 38 38 38 39 40 41 41 42 41 41 40 39 38 37 37 37 37 38 39 39 37 37 38 39 39 38 37 36 34 32 30 28 26 23 21 20 19 19 18 18 18 19 20 21 22 24 26 28 30 32 33 35 36 37 39 40 42 43 45 46 47 49 50 51 51 51 50 50
31 30 30 29 29 29 29 29 30 30 31 31 31 32 33 34 35 36 36 36 36 37 38 39 40 41 41 40 40 39 38 37 36 36 36 37 38 38 38 37 38 39 40 40 38 35 33 32 30 29 26 24 22 21 20 19 19 19 19 20 20 22 24 26 28 30 32 33 35 36 37 38 39 40 41 43 44 45 47 48 49 50 51 51 52 53
30 29 28 28 28 28 28 29 29 29 29 29 29 30 31 31 32 33 34 34 34 35 36 37 38 39 40 40 39 38 37 36 36 35 36 37 38 38 37 37 38 38 39 40 38 35 32 30 30 30 29 26 24 23 22 21 20 20 20 21 22 24 25 27 29 30 32 33 34 35 36 37 38 38 40 41 42 43 45 46 47 48 49 50 51 53
29 28 27 27 27 27 28 28 27 27 27 27 28 28 29 29 30 31 32 33 33 34 35 36 37 38 39 40 40 39 37 36 35 35 36 37 37 37 37 37 37 37 39 40 40 37 33 29 29 30 30 28 26 24 22 20 20 20 20 21 22 22 23 24 26 27 29 30 31 32 33 33 34 35 36 36 38 39 40 41 43 44 46 47 48 50
28 28 27 27 27 27 27 27 26 26 26 26 27 27 28 29 30 31 31 32 33 34 35 35 36 37 38 39 40 40 39 36 34 34 35 36 37 37 37 38 38 37 37 39 40 40 37 31 27 27 27 27 25 23 21 19 19 20 20 21 21 20 20 21 22 23 25 26 27 28 28 29 30 30 31 31 32 33 34 35 37 39 40 42 42 43
28 28 27 27 27 26 26 26 26 26 26 26 27 27 28 29 30 31 31 32 32 33 34 35 35 36 36 37 39 39 39 37 35 34 35 36 37 37 37 38 38 37 37 37 38 40 40 36 30 26 24 24 23 21 19 19 19 20 20 21 21 20 19 20 20 21 22 22 23 23 23 24 24 25 25 25 26 26 27 28 30 32 34 35 35 35
28 27 27 27 26 26 26 26 26 26 27 27 28 28 29 30 30 30 31 31 31 32 33 33 34 35 36 37 38 38 38 37 35 34 34 35 36 37 37 37 38 38 37 36 36 37 39 38 34 29 25 22 20 19 18 18 18 19 19 20 20 20 19 19 20 20 20 20 19 19 18 18 18 18 19 19 19 20 20 21 23 24 26 27 27 27
27 27 26 26 26 26 26 26 27 27 28 28 29 29 30 30 30 30 30 30 30 30 31 32 33 34 36 37 38 38 37 36 35 34 34 34 35 36 36 36 37 37 38 38 37 37 37 36 35 31 27 21 17 16 16 16 17 17 18 19 19 20 20 20 20 20 19 18 17 16 15 14 14 14 15 15 15 15 15 16 16 17 19 20 20 21
27 26 26 26 26 27 27 28 28 29 29 29 29 30 30 30 30 29 29 29 28 28 29 30 31 32 34 36 38 38 37 36 34 33 32 33 34 35 35 35 36 37 37 38 38 38 37 34 32 30 27 21 16 14 14 14 16 16 17 18 19 19 20 20 20 20 19 18 17 15 14 14 13 13 13 14 14 14 14 14 14 15 15 16 16 17
26 26 26 27 28 28 29 30 30 30 30 30 30 30 30 29 29 29 28 27 27 27 27 27 28 30 32 34 36 37 36 35 33 31 31 31 32 33 34 34 34 35 36 37 37 37 35 32 28 25 23 21 17 14 13 13 14 15 16 17 18 18 19 20 20 20 20 18 17 16 15 14 14 14 14 15 16 16 16 16 15 14 14 14 14 14
26 27 27 28 29 30 31 31 31 31 31 30 30 30 29 29 28 28 27 26 26 25 26 26 26 27 29 31 33 34 34 33 32 30 29 30 30 32 32 33 33 33 34 35 35 34 32 29 25 22 20 19 18 17 16 15 15 15 16 16 17 17 18 19 19 20 20 19 18 17 16 15 14 14 14 15 16 17 17 17 15 13 12 11 11 11
27 28 29 30 31 32 32 32 31 31 30 30 30 29 29 28 27 26 26 25 25 25 25 25 25 26 27 29 31 32 32 31 30 29 28 28 29 30 31 32 32 32 31 31 31 30 28 26 24 21 18 17 17 17 18 19 18 18 17 16 16 16 17 17 18 19 19 19 18 17 16 15 15 14 14 15 16 16 16 15 13 11 10 9 8 9
28 29 30 31 32 32 32 31 31 30 29 29 29 29 28 27 26 26 25 24 24 24 24 24 24 25 26 28 29 29 29 28 27 27 26 26 27 28 29 30 30 30 29 27 26 25 24 22 21 20 19 18 17 17 18 19 20 20 18 16 15 14 15 16 17 17 17 16 16 16 15 15 15 15 15 14 14 14 13 12 10 8 7 6 6 7
30 31 32 32 32 32 31 31 30 29 28 28 28 27 27 27 26 25 24 24 24 24 24 23 23 24 26 27 28 28 27 26 25 25 25 26 26 27 28 29 29 28 26 23 22 20 20 19 18 18 18 18 18 18 18 19 20 21 20 18 16 15 15 15 16 16 15 15 15 14 14 13 13 14 14 14 13 12 11 9 7 5 4 4 4 5
32 32 32 33 32 31 30 29 28 27 27 27 26 26 26 26 26 26 25 24 24 23 23 22 22 23 24 26 26 26 25 24 24 24 25 25 26 27 27 27 27 25 23 21 18 17 17 17 17 17 17 18 18 19 19 20 20 21 22 21 20 19 18 18 19 19 18 18 19 19 19 18 18 18 18 19 19 17 14 11 7 4 2 2 2 3
33 33 33 32 31 30 28 27 26 26 25 25 25 25 26 27 27 27 27 26 25 24 23 22 22 23 23 24 24 24 23 23 24 24 25 26 26 26 26 26 24 23 20 18 17 15 14 15 15 16 17 18 19 21 21 22 22 22 23 24 24 24 23 23 23 23 23 23 23 24 25 25 25 24 23 23 22 21 18 15 10 5 3 2 2 1
33 33 32 31 30 28 27 26 25 24 24 23 24 24 25 26 27 28 28 27 26 25 23 22 22 23 24 24 23 22 22 23 23 24 25 25 26 26 25 23 22 20 18 16 15 13 13 13 14 15 16 18 21 23 24 25 25 25 25 26 28 29 29 28 27 26 25 24 25 26 27 27 27 27 26 24 22 20 17 14 11 8 4 3 3 3
33 32 31 30 28 27 25 24 23 22 22 23 23 24 25 26 27 28 28 28 27 25 24 23 22 23 24 24 23 22 22 22 22 23 24 24 25 24 23 21 19 17 15 14 13 12 12 12 13 14 16 18 21 25 27 28 29 29 29 29 30 31 31 31 31 29 27 26 25 25 26 26 27 27 26 24 22 18 14 10 8 6 4 3 4 4
32 30 29 27 26 25 24 23 22 22 22 22 23 24 25 26 27 28 29 28 27 26 24 23 22 23 23 24 23 23 22 22 22 22 23 23 22 22 20 18 16 14 13 12 11 11 12 12 13 14 16 18 21 25 28 30 31 32 32 32 31 31 31 31 31 30 29 27 26 25 25 25 25 25 25 24 21 18 13 9 7 6 5 3 3 3
30 28 26 25 24 23 22 21 21 21 22 22 23 24 25 26 27 28 29 29 28 26 24 22 22 23 23 24 24 23 23 22 22 22 22 21 20 19 18 16 14 12 11 10 10 10 11 12 13 15 16 18 21 24 27 29 31 33 33 33 32 31 30 30 29 29 29 28 27 26 25 25 25 25 25 23 21 17 13 8 6 6 6 5 4 3
27 26 24 23 21 21 20 20 21 21 22 22 23 25 26 27 28 28 29 29 28 27 25 22 21 21 22 24 24 24 24 23 23 23 22 20 19 17 15 14 12 11 10 9 9 10 11 12 14 16 18 21 23 26 27 28 30 31 32 32 32 32 31 30 29 29 29 28 28 27 27 26 25 25 25 23 20 16 11 7 5 5 5 5 5 3
25 24 22 21 20 19 20 21 21 22 22 23 24 25 26 27 28 29 29 29 29 28 26 23 21 20 21 22 24 24 24 24 23 23 22 20 18 16 14 13 11 10 9 9 9 10 10 12 14 16 18 21 23 26 26 27 28 29 30 31 31 32 32 31 31 30 29 28 27 27 27 26 26 26 25 23 20 16 10 6 5 5 5 6 5 3
23 21 20 19 19 20 20 21 22 23 23 24 25 25 26 27 28 29 29 29 29 28 27 24 21 20 20 22 23 23 23 23 22 22 21 19 17 15 13 12 11 10 9 9 9 9 10 11 13 16 18 19 21 24 26 27 27 28 28 29 30 31 32 32 31 31 30 28 27 26 26 25 25 24 23 22 19 15 10 6 5 5 6 6 5 2
20 19 18 19 20 21 22 22 23 24 25 25 26 26 27 27 28 28 28 28 29 28 27 25 22 21 21 21 22 23 22 22 21 21 20 18 16 14 13 11 10 10 9 9 9 9 10 11 13 15 16 18 20 22 24 25 26 26 26 27 28 30 31 32 32 31 31 30 28 26 25 24 23 22 21 20 17 14 10 7 6 7 7 7 5 2
18 18 18 19 21 22 22 23 24 25 26 26 27 27 28 28 28 28 28 28 28 28 27 25 23 21 21 22 22 23 22 21 20 19 19 17 16 14 13 11 10 10 9 9 9 10 10 12 13 14 16 17 19 21 23 24 24 25 26 26 27 28 29 31 31 32 31 30 29 28 26 25 24 22 20 18 16 12 9 7 8 9 9 8 6 3
Wind_Direction
308 308 307 307 306 306 306 306 306 306 306 306 306 306 306 306 306 306 305 305 305 305 304 304 304 305 305 306 306 307 307 307 307 307 306 305 305 304 302 301 300 298 297 295 293 291 289 287 285 283 281 279 276 275 273 271 268 266 265 262 260 257 256 257 258 259 259 259 259 259 259 259 259 258 257 256 256 256 256 257 257 257 258 259 261 262
308 308 307 307 307 306 306 306 307 307 306 306 306 306 306 306 306 305 305 305 305 305 305 306 306 306 307 307 307 307 307 307 306 306 306 306 305 305 304 303 302 300 298 296 294 293 292 290 288 286 284 281 279 276 274 273 272 271 269 267 264 261 258 256 256 255 255 255 254 254 254 255 254 253 252 253 253 253 254 254 255 255 256 258 260 261
308 307 307 307 307 307 306 306 306 306 306 306 305 306 306 306 306 306 306 306 307 307 307 308 308 307 307 307 307 307 307 307 307 307 307 307 307 307 306 304 303 301 299 297 296 295 293 292 291 289 286 283 280 278 277 276 274 273 271 269 267 265 262 259 257 255 254 253 252 252 252 251 250 249 248 247 248 248 249 250 252 253 255 257 259 261
307 307 307 307 307 307 306 306 306 306 305 305 305 305 306 306 307 307 308 309 309 309 309 309 308 308 308 308 308 308 308 308 308 309 309 308 308 307 306 304 302 301 299 297 296 295 294 293 291 290 287 285 282 280 278 275 272 269 268 267 266 265 263 261 258 256 254 253 252 252 252 251 250 249 248 247 247 247 248 249 250 252 254 257 260 262
307 308 307 307 307 306 306 306 305 305 305 305 306 307 308 309 309 310 310 310 310 310 309 309 309 309 309 309 309 309 310 310 310 309 309 308 307 306 304 303 301 299 298 296 295 294 293 292 290 289 288 287 286 283 278 272 268 265 264 263 262 261 259 257 256 254 253 253 252 252 253 252 252 251 250 250 249 249 250 251 252 254 256 259 262 264
307 307 307 307 306 305 305 305 305 305 307 308 309 310 311 311 312 311 311 311 311 310 310 310 310 310 310 310 311 311 311 310 309 308 307 307 305 304 302 300 298 297 296 294 293 291 290 289 288 287 288 289 287 284 278 273 268 265 262 261 259 258 256 255 254 253 253 253 253 254 255 255 255 255 254 254 253 253 253 254 255 257 259 261 263 264
307 307 307 306 306 305 305 305 307 309 311 312 313 313 313 312 311 311 311 311 310 310 311 311 311 311 311 312 311 311 310 309 308 307 306 304 303 302 300 299 297 296 295 294 292 290 288 286 284 285 286 285 282 278 276 274 271 267 264 262 260 258 257 256 256 256 256 256 256 257 258 259 259 259 259 258 257 257 257 257 258 259 261 263 264 264
307 307 307 307 306 306 307 309 311 313 314 314 313 312 312 311 311 310 310 310 311 311 312 312 312 312 312 311 311 310 308 307 306 306 305 304 303 302 301 299 298 297 296 295 293 291 289 287 285 282 280 278 275 273 273 273 271 269 266 264 262 261 260 259 259 259 259 259 259 260 261 261 262 262 262 262 261 260 260 260 260 262 263 263 263 261
307 307 308 308 309 311 311 312 313 314 313 312 311 310 310 310 311 311 311 312 312 313 313 313 313 312 311 310 309 309 308 307 307 307 307 306 305 303 302 301 299 298 297 296 295 294 292 291 289 284 280 276 274 273 273 272 271 269 267 266 264 263 262 261 260 260 260 260 261 261 262 262 263 263 263 263 263 262 262 262 263 263 263 262 260 258
308 309 310 311 312 313 313 312 312 311 310 309 308 309 310 311 312 313 313 313 313 314 313 313 312 311 310 310 310 310 310 309 309 309 308 307 306 305 304 302 301 300 299 298 297 295 294 293 292 289 285 282 279 277 275 273 272 270 269 267 266 265 263 262 261 261 260 260 261 261 262 262 263 263 263 263 263 263 263 263 263 263 262 260 258 256
310 312 313 313 313 311 310 309 309 309 309 309 310 311 312 313 314 315 314 314 314 313 312 312 311 311 311 312 312 313 313 312 312 311 310 308 307 306 305 304 303 303 302 301 299 298 296 294 292 290 287 284 282 279 277 275 273 271 270 268 267 266 265 264 263 262 261 261 261 261 261 262 262 262 263 263 263 263 263 263 263 262 260 257 255 254
313 314 313 311 309 307 307 308 308 309 311 311 313 314 315 316 316 315 313 312 312 312 312 312 312 312 313 314 315 316 315 315 314 314 312 311 310 309 308 308 307 306 305 303 301 299 297 295 292 289 287 285 282 280 278 275 273 271 270 268 267 266 266 265 264 263 262 262 261 261 261 261 262 263 264 264 264 264 264 263 262 260 257 255 253 252
314 312 308 306 305 306 307 308 310 312 313 314 315 315 315 316 315 313 311 311 311 312 313 313 313 314 315 316 317 318 318 317 317 316 315 315 314 314 313 312 311 309 308 305 303 300 298 296 293 291 288 286 284 281 279 277 274 272 270 269 268 267 266 265 264 263 263 262 261 261 261 262 263 265 265 265 265 264 262 261 259 257 255 254 252 250
310 306 304 304 305 307 309 310 312 313 314 315 315 315 314 314 313 312 311 311 312 313 314 314 314 315 317 318 319 320 320 320 319 318 317 317 317 318 317 315 314 312 311 308 306 304 303 301 298 295 292 289 287 284 282 279 277 274 272 270 268 266 265 264 264 263 263 262 262 262 263 264 264 264 262 260 259 258 257 256 256 255 254 253 251 250
304 303 303 305 307 309 311 312 313 314 315 315 315 314 313 312 312 312 313 314 315 315 316 315 315 316 318 320 322 323 323 323 321 320 319 319 319 320 319 317 315 314 313 312 311 309 309 307 304 300 297 293 290 288 285 283 280 277 274 271 269 267 265 264 263 262 261 261 262 264 265 264 261 257 254 252 250 249 249 250 251 251 252 251 250 249
302 303 304 306 308 310 312 313 313 314 314 315 314 313 312 313 314 315 316 316 317 317 317 316 316 318 320 323 326 327 326 324 323 321 320 320 321 322 321 319 318 317 316 315 315 314 313 310 307 304 300 297 294 292 289 286 283 279 276 273 270 267 264 262 260 258 257 257 257 257 256 256 254 252 250 248 246 245 244 244 244 245 246 246 246 246
303 304 305 306 308 311 313 313 314 314 314 314 313 313 314 315 316 317 318 317 317 317 317 317 318 320 322 326 329 330 328 325 323 322 321 321 322 323 323 322 320 319 318 317 317 316 314 312 309 306 303 301 298 295 292 289 286 282 278 274 270 267 264 260 257 254 252 250 249 249 250 251 252 251 249 248 246 245 243 242 242 242 242 242 243 243
304 305 306 307 309 311 313 313 314 314 314 314 314 315 316 317 317 317 317 317 317 317 318 319 320 322 324 326 330 332 330 326 323 322 321 321 323 324 325 323 322 320 318 318 317 316 314 312 310 308 307 305 302 299 296 292 288 284 279 275 271 267 264 260 257 254 251 249 248 249 250 251 252 252 250 249 247 245 244 244 243 243 243 243 244 244
305 306 307 309 310 311 312 313 314 314 315 315 317 317 318 317 317 317 316 316 317 318 319 320 321 323 324 325 328 331 329 325 322 321 321 321 323 325 326 324 321 319 318 318 318 317 315 314 312 311 310 308 306 302 298 293 289 284 280 276 271 267 264 261 258 256 253 252 251 251 252 253 253 253 251 250 248 247 245 245 245 245 245 245 246 246
306 308 309 311 311 312 312 314 315 316 317 318 318 318 317 316 316 316 317 317 318 319 320 321 321 322 323 324 326 328 327 324 321 320 320 321 322 325 326 324 321 318 318 319 320 319 318 316 315 315 314 312 309 305 300 296 291 287 282 278 274 270 266 263 260 258 256 255 254 253 253 253 253 252 252 250 249 248 247 246 246 246 246 247 247 248
307 309 312 313 313 312 314 315 317 319 319 319 318 316 316 316 317 317 318 319 319 320 321 320 321 321 322 322 324 326 325 323 320 320 320 320 322 324 325 323 320 318 319 320 321 321 319 319 318 318 317 316 313 309 305 300 295 290 286 283 279 275 271 268 264 261 259 257 256 255 254 254 253 252 251 251 250 249 248 248 247 247 247 248 248 249
309 311 314 315 315 315 317 318 320 320 320 319 317 316 316 317 317 318 319 319 320 320 320 319 320 320 321 321 323 324 324 322 321 320 320 320 321 323 324 322 320 319 320 322 323 323 322 321 322 322 321 320 317 313 309 303 298 294 290 287 284 281 277 274 270 266 263 261 259 257 256 255 254 253 252 251 251 250 249 249 249 249 249 249 249 249
312 314 316 317 318 319 320 320 320 319 319 318 317 317 317 317 317 317 318 319 319 319 319 319 319 320 321 321 322 322 323 322 322 321 320 319 320 322 323 322 321 320 321 324 325 324 324 324 325 326 325 324 321 317 312 307 302 297 294 291 288 285 281 278 275 271 268 265 262 260 258 257 255 254 253 253 252 251 251 250 250 250 250 250 250 250
316 317 319 320 321 321 320 320 319 319 319 318 318 318 317 317 317 317 317 317 318 318 318 319 319 320 321 321 321 322 323 323 323 322 320 319 319 321 323 323 321 321 322 325 326 325 325 326 328 329 329 327 324 321 315 310 305 300 296 292 289 285 282 279 276 273 270 267 265 262 260 258 256 255 254 253 253 252 251 251 251 251 250 250 250 250
320 321 322 322 322 321 320 319 319 319 319 319 318 318 317 316 316 316 316 317 317 317 317 317 318 319 321 322 322 323 325 325 324 323 321 320 319 320 323 323 322 322 323 326 327 327 327 329 331 333 332 330 328 324 319 313 308 303 298 293 288 284 280 276 274 271 269 267 265 262 260 258 256 254 253 252 252 251 251 251 251 250 250 249 248 247
323 323 323 322 322 321 320 320 320 320 320 319 318 317 316 315 315 315 316 316 316 316 316 317 318 320 323 324 325 326 327 328 327 325 323 320 319 320 324 324 323 323 324 327 328 329 329 331 333 335 334 332 330 326 321 316 310 304 298 293 287 283 279 276 273 271 268 266 264 262 260 257 255 254 252 251 251 251 250 250 250 250 249 248 246 244
325 325 324 323 323 322 322 321 321 321 320 318 317 315 314 313 313 314 315 316 317 317 317 318 320 322 325 326 327 328 329 330 330 328 324 321 320 321 324 326 325 324 325 327 329 329 329 331 334 336 336 335 332 328 324 319 312 306 299 294 290 286 283 279 276 274 271 269 267 265 263 260 258 256 254 253 252 251 250 250 250 250 249 247 245 243
327 326 326 325 325 324 323 323 322 320 319 317 316 314 313 313 313 314 315 317 318 318 319 320 322 324 326 327 329 330 331 332 332 330 325 322 321 322 325 326 326 326 326 327 328 329 331 333 336 338 338 338 336 333 329 324 317 309 302 296 291 288 285 282 280 278 276 274 273 272 270 268 266 263 261 258 257 255 254 253 252 252 251 249 247 246
329 328 328 327 326 325 324 323 321 320 318 317 316 315 314 314 314 315 317 318 319 320 322 323 325 326 327 328 330 331 333 335 334 330 325 322 322 323 326 326 327 328 328 328 328 330 333 336 339 339 339 339 339 337 333 326 318 309 301 294 290 287 285 283 282 281 280 280 279 278 277 275 274 271 269 267 265 263 261 259 258 258 257 255 253 252
331 331 330 329 328 326 324 323 321 320 319 318 318 318 317 317 317 318 319 320 322 323 324 326 327 328 329 329 330 332 335 337 335 330 326 323 322 324 326 327 328 329 330 329 329 330 334 339 342 341 339 339 339 337 333 325 315 306 299 294 291 289 287 286 286 285 285 285 284 284 283 282 281 279 278 275 273 271 269 267 266 265 264 262 261 260
334 333 332 331 329 327 325 323 322 321 321 321 321 321 320 320 320 320 321 322 324 325 326 327 328 329 330 330 331 332 334 337 335 330 326 323 324 325 327 327 328 331 332 331 329 329 333 338 343 344 341 339 338 336 331 323 314 306 302 300 299 298 297 295 295 294 293 293 292 291 291 290 288 287 285 283 281 279 277 274 272 270 269 268 267 266
335 334 332 331 329 327 326 324 324 323 323 323 323 323 322 321 321 321 322 323 325 325 326 327 328 330 330 331 331 331 333 335 334 331 327 325 325 327 328 328 329 330 332 331 330 329 329 333 339 344 344 341 340 336 330 323 316 313 311 310 310 310 310 309 307 306 305 304 302 300 298 296 295 293 291 289 287 285 282 279 276 273 272 270 269 267
335 333 332 330 328 327 326 326 325 325 325 325 324 324 322 322 321 322 323 324 325 326 327 328 329 330 331 331 331 331 333 334 333 331 328 326 325 327 329 329 330 330 331 331 331 330 329 330 335 339 342 344 342 338 331 324 320 319 318 318 317 318 318 317 315 313 312 312 310 308 306 303 300 297 295 293 290 287 284 281 277 273 271 269 267 264
334 332 331 329 328 327 326 326 326 326 326 326 325 325 324 323 323 323 324 324 325 326 327 328 329 330 331 331 331 332 333 333 332 330 329 327 326 327 329 330 330 331 330 331 331 331 330 331 333 336 340 344 346 342 334 327 324 324 324 322 321 321 320 318 316 315 315 315 314 312 310 305 302 298 296 293 290 287 285 281 277 274 271 269 266 263
333 332 330 329 327 327 327 327 327 327 327 328 327 326 326 325 325 325 325 325 325 326 327 328 329 330 331 331 331 331 332 332 332 331 329 328 327 327 328 330 331 331 330 330 331 330 330 332 334 336 338 343 348 349 342 333 329 329 328 327 325 323 321 319 317 315 316 316 315 313 309 304 299 296 293 290 288 286 285 283 280 277 274 271 268 264
332 331 330 329 328 328 328 328 329 329 330 330 329 329 328 327 327 326 326 326 326 326 326 327 328 330 331 331 331 331 330 331 331 331 331 330 328 328 328 329 330 330 329 329 329 329 329 332 336 339 340 343 348 353 350 343 337 334 333 331 329 326 323 319 317 316 317 317 316 313 308 303 298 294 291 289 288 286 285 283 282 279 277 273 269 264
331 331 330 329 329 329 329 330 331 331 332 332 331 331 330 329 328 328 328 327 326 325 325 325 327 329 332 332 332 331 330 331 331 332 332 331 330 328 327 328 329 329 328 327 328 329 330 333 337 343 347 350 352 353 351 348 345 342 340 337 334 330 325 320 317 317 317 317 316 312 308 302 297 293 290 288 287 286 284 283 283 282 280 275 268 259
331 331 330 330 330 330 331 332 333 333 334 334 333 332 331 330 330 330 329 329 328 327 326 326 327 330 333 334 333 332 331 332 332 333 333 332 330 329 327 327 327 328 328 328 328 329 331 334 339 347 355 0 1 358 353 351 349 348 347 343 339 333 327 322 320 319 319 319 317 315 311 307 302 299 296 295 293 291 288 285 284 284 285 280 268 252
331 331 331 330 331 331 332 333 334 335 335 335 334 333 332 332 332 332 332 332 330 329 328 328 330 333 335 337 336 335 334 334 334 334 334 333 331 329 327 326 327 328 330 331 331 332 334 337 343 350 357 3 6 5 360 355 353 353 353 353 349 343 336 330 328 328 328 327 326 324 321 317 313 310 308 308 307 304 299 293 288 289 296 292 273 249
331 331 331 331 331 332 334 335 336 337 337 337 335 334 333 333 334 335 335 335 334 332 330 330 332 335 338 339 339 338 337 336 336 335 334 333 331 329 327 327 329 332 335 337 338 338 339 343 350 358 3 5 8 9 8 4 1 1 3 6 8 5 356 350 348 348 350 350 351 349 347 341 335 330 328 330 332 331 325 311 299 297 313 315 289 253
331 331 331 331 332 333 335 337 338 339 339 338 337 336 336 337 338 339 339 338 337 335 333 332 334 336 339 341 341 341 339 339 338 337 335 334 332 331 330 331 334 338 341 343 345 346 347 350 358 7 12 14 15 17 16 13 11 11 12 15 19 20 16 12 9 9 10 10 10 9 7 5 0 355 351 349 349 348 348 341 325 305 326 346 315 260
331 331 331 332 333 335 338 339 340 341 341 340 340 340 341 342 343 343 342 341 340 338 336 335 335 337 339 341 343 343 343 342 340 339 337 336 335 335 335 338 341 344 346 349 352 355 359 1 6 11 15 19 21 23 23 22 20 17 16 17 19 22 22 19 16 13 10 8 7 6 5 4 3 1 359 355 352 350 349 350 348 339 324 345 360 314
331 331 332 333 335 338 340 342 343 344 344 344 345 346 347 348 347 346 345 344 342 340 338 336 336 337 338 341 344 346 347 345 344 342 341 339 339 339 340 344 347 350 351 354 359 7 13 14 13 13 16 19 22 24 25 26 23 20 17 15 14 14 13 13 12 10 6 2 360 359 358 357 357 357 357 356 354 351 349 349 352 353 344 337 351 355
331 331 333 335 338 340 342 345 347 348 349 350 351 352 353 352 352 350 349 347 345 342 339 337 336 336 338 341 345 348 350 349 347 346 345 343 342 343 345 349 353 355 356 360 7 17 24 23 20 17 16 17 20 22 24 24 22 19 17 16 14 11 8 7 7 5 3 0 357 354 352 350 350 351 353 353 354 353 352 351 352 354 351 328 325 335
331 333 335 337 340 343 346 349 352 355 356 356 356 357 358 357 356 355 353 350 348 345 341 338 337 337 339 343 347 350 352 352 351 350 349 348 347 347 349 353 358 2 4 9 17 24 28 27 25 22 20 19 20 21 22 22 20 19 19 18 17 14 10 7 5 2 360 358 355 352 348 345 345 346 348 350 351 353 354 355 356 352 345 328 316 323
333 335 337 340 343 347 350 354 357 359 1 1 1 1 1 360 359 358 357 354 351 348 344 341 338 338 340 344 348 351 353 355 355 354 354 353 352 352 353 359 4 10 14 19 25 30 32 30 28 27 27 26 26 25 23 20 19 19 20 20 17 14 10 7 4 1 359 356 352 349 346 344 343 344 345 348 350 352 354 360 1 351 339 334 337 346
336 337 339 343 347 352 356 360 2 3 3 4 4 4 3 2 1 0 359 357 354 351 347 344 341 341 342 346 349 352 355 356 358 358 358 358 358 358 360 5 12 18 22 26 29 32 32 31 30 29 30 31 32 31 27 23 20 19 19 18 16 12 9 6 4 2 359 355 351 348 346 345 344 344 345 348 350 352 354 1 7 360 347 340 344 2
339 340 343 347 352 358 2 4 5 5 4 5 5 5 4 3 1 360 359 358 357 354 351 348 345 344 345 349 352 354 356 358 359 360 1 3 4 6 8 12 18 23 26 28 29 30 30 29 29 29 30 31 32 32 30 26 23 20 18 16 14 11 9 8 7 5 1 357 353 350 349 348 346 346 347 349 351 353 355 1 7 8 3 350 347 3
343 345 348 353 358 2 5 6 6 5 4 4 4 4 3 2 0 359 358 358 358 357 355 352 349 347 348 351 354 357 358 359 0 2 3 6 9 13 16 20 23 26 26 25 25 25 26 27 28 28 28 29 30 31 30 28 26 23 20 17 15 13 12 11 10 7 3 360 357 355 354 354 354 353 352 352 354 357 2 8 11 7 360 347 344 360
348 352 356 1 4 5 6 6 5 4 3 2 2 1 1 0 359 358 357 357 358 359 359 357 353 351 350 353 355 358 359 1 2 4 6 9 13 17 21 26 29 29 27 24 21 21 23 25 26 26 26 27 27 27 26 26 26 25 23 20 18 16 16 15 13 9 5 2 0 360 360 1 2 3 2 1 3 7 13 16 15 7 356 348 350 17
355 360 5 6 6 6 6 5 4 2 1 360 360 359 359 358 357 356 356 356 358 360 1 1 358 355 353 354 356 358 359 1 3 6 8 12 16 20 24 28 31 31 28 25 22 22 23 25 26 26 25 24 24 24 22 21 22 24 24 23 21 20 19 18 16 12 7 3 2 3 4 6 8 10 11 11 14 20 26 22 12 5 1 4 15 40
Height
2885 2883 2881 2878 2876 2874 2870 2867 2865 2863 2861 2858 2855 2853 2852 2850 2848 2846 2844 2842 2841 2838 2836 2834 2832 2830 2828 2827 2826 2824 2823 2821 2820 2818 2817 2815 2814 2812 2810 2809 2807 2806 2805 2803 2802 2801 2800 2800 2799 2798 2797 2796 2795 2794 2794 2793 2793 2794 2794 2794 2794 2795 2796 2797 2798 2798 2798 2798 2798 2798 2798 2798 2798 2798 2798 2798 2799 2800 2799 2799 2798 2796 2796 2795 2796 2797
2881 2878 2875 2873 2871 2869 2866 2863 2861 2859 2856 2854 2851 2849 2848 2846 2844 2842 2840 2838 2836 2834 2832 2830 2828 2826 2824 2823 2821 2820 2819 2817 2816 2814 2812 2811 2809 2807 2806 2804 2803 2801 2800 2799 2798 2797 2796 2795 2794 2793 2793 2792 2791 2790 2790 2790 2790 2791 2790 2790 2790 2791 2791 2791 2792 2792 2792 2792 2792 2792 2792 2792 2792 2792 2793 2793 2794 2794 2794 2793 2791 2791 2790 2791 2791 2793
2877 2874 2871 2868 2866 2864 2861 2859 2857 2855 2852 2850 2848 2846 2844 2842 2840 2838 2836 2834 2832 2830 2828 2826 2824 2822 2820 2819 2817 2816 2815 2813 2811 2810 2808 2806 2805 2803 2801 2800 2799 2797 2796 2795 2794 2793 2792 2791 2791 2790 2789 2788 2787 2787 2787 2787 2787 2787 2786 2787 2787 2786 2785 2785 2786 2786 2786 2786 2785 2785 2785 2785 2785 2785 2785 2786 2786 2786 2786 2786 2785 2785 2785 2786 2788 2790
2872 2870 2867 2864 2861 2859 2857 2856 2853 2851 2849 2846 2845 2843 2841 2839 2836 2834 2832 2830 2828 2826 2824 2822 2820 2818 2816 2814 2813 2811 2810 2808 2807 2805 2804 2802 2801 2799 2798 2796 2795 2794 2792 2791 2790 2789 2788 2787 2787 2786 2785 2784 2784 2783 2784 2785 2784 2783 2783 2782 2782 2781 2781 2781 2780 2780 2780 2779 2779 2779 2778 2778 2778 2779 2779 2780 2780 2781 2780 2780 2780 2781 2781 2783 2785 2787
2867 2865 2862 2860 2857 2854 2853 2851 2849 2847 2845 2843 2841 2839 2837 2834 2832 2830 2827 2826 2824 2822 2820 2818 2816 2814 2812 2810 2808 2807 2806 2804 2803 2801 2800 2799 2797 2796 2795 2793 2792 2791 2789 2788 2787 2786 2785 2784 2783 2782 2781 2781 2780 2781 2781 2781 2780 2779 2778 2778 2777 2776 2776 2776 2775 2775 2774 2774 2773 2773 2773 2773 2773 2774 2775 2775 2776 2776 2776 2776 2777 2778 2779 2781 2783 2784
2862 2861 2859 2856 2854 2851 2849 2847 2846 2843 2841 2838 2836 2835 2832 2830 2828 2826 2824 2822 2820 2818 2816 2814 2812 2811 2808 2806 2805 2803 2802 2801 2799 2798 2797 2796 2794 2793 2792 2790 2789 2787 2786 2785 2784 2783 2782 2781 2780 2779 2778 2778 2778 2778 2777 2776 2775 2774 2773 2772 2771 2771 2770 2770 2769 2769 2768 2768 2768 2768 2768 2768 2769 2769 2770 2771 2772 2772 2773 2773 2774 2776 2777 2779 2780 2780
2857 2856 2855 2853 2850 2847 2846 2843 2841 2840 2837 2834 2832 2830 2828 2827 2825 2823 2821 2819 2816 2814 2812 2810 2808 2807 2805 2803 2802 2800 2799 2797 2796 2795 2794 2792 2791 2790 2788 2787 2786 2784 2783 2782 2781 2780 2779 2778 2777 2777 2777 2777 2776 2775 2773 2771 2770 2769 2768 2767 2767 2766 2766 2765 2765 2765 2764 2764 2764 2764 2764 2765 2765 2765 2766 2766 2767 2768 2769 2770 2771 2772 2774 2775 2776 2776
2853 2852 2851 2849 2846 2843 2841 2839 2837 2836 2834 2832 2829 2826 2825 2823 2822 2820 2818 2816 2814 2811 2808 2806 2804 2803 2802 2800 2799 2797 2795 2794 2792 2791 2790 2788 2787 2786 2784 2783 2781 2780 2779 2778 2777 2776 2775 2774 2774 2774 2775 2773 2771 2770 2768 2767 2766 2765 2764 2763 2763 2762 2762 2761 2761 2761 2761 2761 2761 2761 2761 2761 2761 2761 2761 2762 2763 2764 2765 2766 2767 2768 2770 2771 2771 2772
2851 2849 2846 2845 2843 2840 2837 2835 2834 2833 2832 2830 2827 2825 2822 2819 2817 2816 2814 2812 2810 2808 2806 2803 2800 2799 2798 2797 2796 2794 2792 2790 2789 2787 2786 2784 2782 2781 2780 2778 2777 2776 2775 2774 2773 2772 2771 2770 2770 2769 2769 2767 2766 2764 2763 2762 2761 2760 2759 2759 2759 2758 2758 2758 2757 2757 2757 2757 2757 2757 2757 2757 2757 2757 2757 2758 2758 2759 2760 2761 2763 2764 2765 2766 2767 2767
2848 2846 2843 2841 2839 2838 2836 2833 2831 2831 2831 2828 2826 2823 2820 2817 2813 2810 2808 2806 2805 2804 2803 2800 2797 2795 2794 2793 2792 2790 2788 2786 2785 2784 2782 2781 2779 2777 2776 2774 2773 2771 2771 2770 2769 2768 2767 2766 2765 2764 2762 2761 2761 2760 2758 2757 2756 2756 2755 2755 2755 2754 2754 2754 2753 2753 2753 2753 2753 2753 2753 2753 2753 2753 2753 2754 2755 2755 2756 2757 2758 2760 2762 2762 2762 2762
2845 2843 2841 2839 2837 2836 2835 2833 2830 2828 2827 2825 2822 2820 2818 2816 2812 2807 2803 2801 2800 2800 2799 2797 2795 2792 2790 2788 2787 2786 2785 2782 2781 2780 2778 2777 2775 2773 2771 2770 2769 2767 2766 2765 2764 2763 2763 2762 2761 2759 2758 2757 2756 2755 2754 2753 2752 2752 2751 2751 2751 2750 2750 2750 2749 2749 2749 2749 2749 2749 2749 2749 2749 2750 2750 2751 2751 2752 2753 2753 2755 2756 2757 2758 2758 2758
2843 2841 2840 2838 2836 2834 2832 2830 2828 2826 2824 2822 2818 2815 2813 2812 2810 2807 2802 2799 2797 2796 2794 2793 2791 2790 2788 2785 2783 2782 2781 2778 2776 2775 2773 2772 2771 2769 2767 2766 2765 2763 2762 2761 2760 2760 2759 2757 2756 2755 2754 2753 2752 2751 2750 2749 2748 2748 2747 2747 2747 2746 2746 2746 2746 2745 2745 2745 2745 2745 2746 2746 2746 2746 2747 2747 2748 2749 2749 2750 2751 2752 2753 2753 2754 2754
2842 2841 2839 2836 2833 2831 2830 2827 2825 2822 2821 2819 2816 2812 2809 2808 2806 2805 2801 2797 2795 2793 2791 2789 2787 2786 2786 2784 2782 2779 2777 2775 2772 2771 2769 2767 2766 2765 2763 2761 2760 2759 2758 2757 2756 2756 2755 2753 2752 2751 2750 2749 2748 2747 2746 2745 2744 2744 2744 2743 2743 2743 2742 2742 2742 2742 2742 2742 2742 2742 2742 2742 2743 2745 2745 2745 2746 2746 2746 2747 2747 2748 2748 2749 2749 2750
2841 2838 2836 2833 2831 2829 2827 2825 2822 2819 2817 2816 2813 2811 2808 2805 2803 2801 2798 2795 2793 2791 2789 2786 2784 2783 2782 2782 2780 2777 2774 2771 2769 2767 2766 2764 2763 2762 2760 2758 2756 2756 2755 2753 2752 2751 2751 2749 2748 2747 2746 2745 2744 2743 2742 2741 2741 2740 2740 2739 2739 2739 2738 2738 2738 2738 2738 2738 2738 2739 2739 2740 2741 2742 2741 2741 2741 2742 2742 2742 2743 2743 2744 2744 2745 2745
2838 2835 2832 2830 2828 2826 2824 2822 2820 2817 2815 2813 2811 2808 2805 2803 2801 2798 2796 2792 2790 2788 2786 2784 2781 2780 2780 2780 2778 2775 2772 2769 2766 2764 2762 2761 2761 2760 2758 2756 2753 2752 2751 2750 2748 2747 2747 2746 2744 2743 2742 2741 2740 2739 2738 2737 2736 2736 2736 2735 2735 2735 2734 2734 2734 2734 2735 2735 2736 2738 2739 2738 2737 2736 2736 2735 2736 2736 2736 2737 2738 2739 2740 2740 2741 2741
2835 2833 2830 2827 2825 2823 2821 2820 2817 2815 2812 2810 2808 2806 2803 2800 2798 2796 2793 2791 2788 2786 2784 2781 2778 2776 2776 2777 2776 2774 2770 2767 2764 2762 2760 2758 2758 2758 2756 2753 2751 2749 2748 2747 2746 2744 2744 2743 2741 2740 2739 2738 2737 2736 2735 2734 2733 2732 2731 2731 2731 2731 2730 2730 2730 2730 2731 2731 2732 2733 2732 2731 2730 2730 2730 2730 2731 2731 2731 2732 2733 2734 2735 2735 2736 2736
2833 2831 2828 2825 2822 2820 2819 2817 2815 2813 2810 2808 2805 2803 2801 2798 2796 2793 2791 2789 2786 2784 2782 2780 2776 2774 2771 2772 2773 2772 2769 2765 2761 2759 2757 2756 2755 2755 2754 2751 2748 2746 2745 2744 2743 2742 2741 2740 2739 2737 2736 2735 2734 2733 2731 2731 2729 2728 2728 2727 2726 2726 2726 2726 2726 2726 2726 2726 2726 2725 2725 2724 2724 2725 2725 2726 2726 2727 2727 2728 2728 2728 2729 2729 2730 2731
2831 2828 2826 2823 2820 2818 2816 2815 2813 2811 2808 2805 2802 2800 2798 2796 2794 2792 2790 2787 2785 2782 2780 2777 2775 2772 2770 2768 2768 2768 2767 2763 2760 2756 2754 2753 2752 2752 2751 2749 2746 2743 2742 2741 2741 2740 2739 2737 2736 2735 2734 2732 2731 2730 2729 2727 2726 2725 2724 2723 2723 2722 2722 2721 2721 2721 2721 2721 2720 2720 2720 2720 2720 2721 2722 2722 2723 2723 2723 2724 2724 2724 2725 2725 2726 2726
2827 2825 2823 2821 2818 2816 2814 2812 2811 2808 2806 2802 2800 2797 2796 2794 2792 2791 2788 2786 2784 2781 2778 2776 2773 2771 2769 2766 2765 2765 2765 2762 2758 2755 2752 2750 2749 2749 2748 2746 2743 2741 2740 2739 2739 2737 2736 2735 2734 2733 2731 2730 2729 2727 2726 2725 2723 2722 2721 2720 2720 2719 2718 2718 2717 2717 2717 2716 2716 2716 2716 2716 2717 2717 2718 2718 2719 2719 2719 2720 2720 2721 2721 2721 2722 2723
2824 2823 2822 2819 2816 2813 2811 2810 2808 2806 2803 2801 2799 2796 2794 2792 2790 2788 2786 2784 2781 2779 2777 2774 2772 2769 2768 2765 2764 2763 2762 2760 2756 2753 2751 2748 2746 2746 2746 2744 2741 2739 2737 2737 2736 2735 2733 2731 2731 2730 2729 2728 2726 2725 2723 2722 2721 2719 2718 2717 2716 2716 2715 2714 2714 2713 2713 2713 2712 2712 2712 2712 2713 2713 2714 2714 2714 2715 2715 2716 2716 2716 2717 2717 2718 2719
2822 2820 2820 2818 2815 2812 2809 2807 2806 2804 2802 2800 2798 2795 2792 2790 2788 2786 2784 2781 2779 2777 2775 2772 2770 2768 2766 2764 2762 2761 2761 2758 2755 2751 2748 2746 2744 2744 2744 2741 2739 2736 2735 2734 2734 2732 2731 2729 2728 2727 2726 2725 2723 2722 2721 2719 2718 2717 2716 2715 2714 2713 2712 2711 2711 2710 2710 2709 2709 2709 2708 2708 2709 2709 2709 2710 2710 2711 2711 2711 2712 2712 2713 2713 2714 2716
2821 2818 2817 2816 2813 2810 2807 2805 2803 2802 2801 2799 2796 2793 2790 2788 2786 2783 2781 2780 2777 2775 2773 2771 2769 2766 2765 2762 2761 2760 2759 2757 2754 2751 2747 2743 2741 2741 2741 2740 2736 2734 2732 2731 2731 2729 2728 2726 2725 2724 2723 2721 2721 2719 2718 2717 2716 2714 2713 2712 2711 2710 2709 2709 2708 2707 2706 2706 2705 2705 2705 2705 2705 2705 2705 2706 2706 2706 2706 2707 2707 2708 2709 2709 2710 2712
2819 2816 2815 2813 2811 2809 2806 2804 2803 2801 2799 2797 2795 2792 2789 2787 2785 2782 2780 2778 2776 2773 2771 2769 2767 2765 2763 2761 2759 2758 2757 2755 2752 2750 2746 2742 2739 2738 2739 2737 2734 2732 2730 2729 2728 2726 2725 2724 2722 2721 2720 2719 2718 2717 2716 2715 2713 2712 2711 2710 2709 2708 2707 2706 2705 2704 2703 2702 2702 2702 2701 2701 2701 2701 2701 2701 2702 2702 2703 2703 2703 2704 2704 2705 2706 2708
2817 2815 2813 2811 2809 2808 2806 2804 2801 2799 2797 2795 2793 2791 2788 2786 2784 2781 2779 2776 2774 2772 2769 2767 2765 2763 2761 2760 2758 2756 2755 2754 2751 2748 2745 2741 2737 2736 2736 2735 2732 2729 2728 2727 2726 2724 2722 2721 2720 2719 2717 2716 2716 2715 2713 2712 2711 2710 2709 2708 2707 2706 2704 2703 2702 2701 2700 2699 2699 2698 2698 2698 2698 2698 2698 2698 2698 2698 2699 2699 2699 2699 2700 2701 2703 2705
2816 2814 2812 2810 2808 2806 2804 2802 2800 2798 2796 2793 2791 2789 2786 2784 2782 2780 2778 2776 2773 2771 2768 2766 2763 2761 2760 2758 2756 2755 2754 2752 2750 2747 2743 2739 2736 2734 2734 2733 2730 2727 2725 2724 2723 2721 2719 2718 2717 2716 2715 2714 2713 2712 2711 2710 2709 2708 2706 2705 2704 2703 2701 2700 2699 2698 2697 2696 2695 2695 2694 2694 2693 2693 2693 2693 2693 2694 2694 2694 2694 2695 2695 2696 2698 2700
2815 2812 2811 2809 2806 2805 2803 2801 2799 2797 2795 2792 2790 2788 2785 2783 2781 2778 2776 2775 2772 2770 2767 2764 2762 2760 2758 2756 2755 2753 2751 2750 2748 2746 2742 2738 2734 2732 2732 2731 2729 2725 2722 2721 2720 2719 2717 2715 2714 2713 2712 2711 2711 2710 2709 2707 2706 2705 2704 2702 2701 2700 2698 2697 2696 2695 2694 2692 2691 2691 2690 2690 2689 2689 2689 2689 2689 2689 2689 2689 2689 2690 2690 2691 2693 2694
2813 2811 2809 2807 2805 2803 2801 2799 2797 2796 2794 2792 2790 2787 2785 2782 2780 2777 2776 2774 2772 2769 2766 2763 2760 2758 2756 2755 2753 2751 2749 2748 2746 2744 2741 2737 2733 2731 2729 2729 2726 2723 2721 2718 2717 2716 2715 2713 2711 2711 2710 2709 2708 2707 2706 2705 2703 2702 2700 2699 2698 2696 2696 2694 2693 2692 2691 2690 2689 2688 2687 2686 2686 2686 2685 2685 2685 2685 2685 2685 2685 2685 2686 2686 2687 2688
2811 2809 2807 2805 2803 2801 2800 2798 2796 2795 2793 2791 2789 2787 2785 2782 2779 2777 2775 2773 2771 2768 2766 2762 2760 2757 2754 2752 2751 2749 2748 2746 2744 2742 2739 2735 2732 2729 2728 2726 2725 2722 2719 2716 2714 2713 2713 2711 2709 2708 2707 2706 2705 2704 2703 2702 2701 2699 2698 2697 2696 2695 2693 2692 2691 2690 2689 2687 2686 2686 2685 2685 2684 2684 2683 2683 2682 2682 2682 2682 2682 2682 2682 2682 2682 2682
2809 2807 2806 2804 2802 2800 2798 2797 2795 2794 2792 2790 2788 2786 2784 2781 2779 2776 2774 2772 2770 2767 2764 2762 2759 2756 2753 2751 2749 2747 2746 2745 2743 2740 2737 2734 2731 2728 2727 2725 2723 2721 2718 2714 2711 2710 2710 2709 2707 2706 2704 2703 2703 2702 2701 2700 2699 2697 2696 2695 2694 2693 2692 2691 2689 2688 2686 2685 2684 2683 2683 2682 2681 2681 2681 2681 2680 2680 2680 2680 2680 2680 2679 2679 2679 2679
2807 2806 2804 2802 2801 2799 2797 2796 2794 2792 2791 2789 2787 2785 2783 2781 2778 2776 2773 2771 2769 2766 2763 2761 2758 2755 2752 2750 2747 2745 2744 2744 2742 2739 2736 2732 2729 2727 2725 2723 2722 2720 2718 2714 2709 2706 2705 2706 2706 2705 2703 2702 2701 2700 2699 2698 2696 2695 2693 2692 2691 2691 2689 2688 2686 2685 2684 2683 2682 2681 2680 2679 2679 2678 2677 2677 2677 2677 2677 2677 2677 2677 2676 2676 2676 2676
2805 2803 2802 2801 2799 2798 2796 2794 2792 2791 2789 2787 2786 2784 2781 2779 2777 2774 2772 2770 2767 2765 2762 2760 2757 2755 2752 2749 2746 2743 2742 2741 2741 2738 2735 2731 2728 2726 2724 2722 2720 2719 2718 2715 2710 2705 2701 2702 2703 2704 2703 2701 2700 2699 2697 2696 2694 2692 2691 2690 2689 2688 2687 2686 2685 2684 2682 2681 2680 2679 2678 2677 2676 2675 2675 2674 2674 2674 2673 2674 2673 2673 2672 2672 2672 2671
2803 2802 2801 2799 2797 2796 2795 2793 2791 2789 2787 2786 2784 2782 2780 2778 2776 2773 2771 2769 2766 2764 2761 2759 2756 2754 2752 2750 2747 2744 2741 2740 2739 2736 2734 2730 2727 2724 2723 2721 2719 2717 2716 2715 2713 2709 2703 2700 2700 2701 2701 2700 2698 2697 2695 2694 2692 2690 2689 2688 2687 2686 2686 2684 2683 2682 2681 2680 2678 2677 2676 2675 2674 2673 2672 2672 2671 2671 2671 2671 2670 2670 2669 2668 2668 2667
2802 2801 2799 2798 2796 2795 2793 2791 2790 2788 2786 2784 2782 2780 2778 2776 2774 2772 2770 2767 2765 2763 2761 2758 2755 2753 2751 2748 2746 2743 2741 2739 2737 2735 2732 2730 2726 2723 2722 2720 2718 2716 2714 2713 2712 2710 2706 2702 2699 2699 2699 2698 2697 2696 2694 2692 2691 2689 2688 2686 2685 2684 2684 2683 2681 2680 2679 2678 2677 2676 2675 2674 2673 2672 2671 2670 2670 2669 2668 2668 2668 2667 2666 2665 2665 2664
2801 2800 2798 2797 2795 2793 2792 2790 2788 2786 2785 2782 2781 2778 2776 2774 2772 2771 2768 2766 2765 2762 2760 2757 2755 2752 2749 2747 2744 2742 2740 2738 2736 2734 2731 2729 2726 2723 2721 2719 2717 2715 2712 2711 2709 2708 2706 2703 2701 2698 2697 2696 2696 2695 2693 2691 2690 2688 2687 2686 2684 2683 2682 2681 2680 2679 2678 2676 2676 2674 2673 2672 2671 2670 2669 2668 2668 2667 2666 2666 2665 2664 2664 2663 2662 2661
2801 2799 2797 2796 2794 2792 2791 2789 2787 2785 2783 2781 2779 2777 2775 2773 2771 2769 2767 2765 2763 2761 2760 2757 2755 2753 2750 2746 2743 2741 2738 2737 2736 2733 2731 2729 2726 2722 2720 2718 2716 2714 2712 2710 2708 2706 2704 2702 2701 2699 2696 2695 2694 2694 2692 2691 2689 2688 2686 2685 2684 2683 2681 2680 2679 2677 2676 2675 2674 2673 2672 2671 2670 2669 2668 2667 2666 2665 2664 2663 2663 2662 2661 2661 2660 2659
2799 2798 2796 2794 2792 2791 2789 2787 2785 2783 2781 2779 2777 2775 2773 2771 2769 2767 2766 2764 2762 2761 2759 2757 2755 2753 2751 2748 2744 2740 2737 2736 2734 2732 2730 2728 2725 2722 2720 2718 2716 2715 2712 2710 2708 2706 2704 2702 2700 2699 2697 2695 2693 2692 2691 2691 2689 2688 2686 2685 2684 2683 2681 2680 2678 2676 2675 2674 2673 2671 2671 2669 2668 2667 2666 2665 2664 2663 2662 2661 2661 2660 2659 2658 2658 2657
2798 2796 2795 2793 2791 2789 2787 2785 2783 2781 2779 2777 2775 2773 2771 2770 2768 2766 2765 2763 2761 2760 2758 2756 2755 2753 2751 2748 2745 2741 2738 2735 2733 2731 2729 2727 2725 2723 2720 2718 2716 2715 2713 2711 2708 2706 2704 2701 2700 2698 2697 2695 2693 2691 2690 2690 2689 2688 2686 2685 2684 2682 2681 2679 2677 2676 2674 2673 2672 2671 2669 2668 2667 2666 2665 2664 2663 2661 2661 2660 2659 2658 2657 2656 2656 2656
2797 2795 2794 2791 2790 2788 2786 2784 2781 2780 2777 2775 2773 2771 2770 2768 2766 2765 2763 2761 2760 2758 2756 2755 2753 2752 2750 2748 2745 2741 2738 2735 2733 2731 2729 2727 2725 2723 2720 2717 2716 2715 2714 2711 2709 2706 2704 2701 2699 2697 2696 2695 2694 2692 2690 2689 2688 2687 2686 2685 2683 2682 2680 2678 2676 2675 2674 2672 2671 2670 2668 2667 2666 2665 2663 2662 2661 2660 2659 2658 2657 2657 2656 2655 2655 2654
2796 2794 2792 2790 2788 2786 2784 2782 2780 2778 2776 2774 2772 2770 2768 2767 2765 2764 2762 2761 2759 2757 2755 2753 2752 2750 2749 2746 2744 2741 2738 2735 2732 2730 2728 2726 2725 2722 2720 2717 2716 2714 2713 2711 2709 2706 2704 2702 2700 2698 2696 2695 2694 2693 2691 2690 2688 2687 2686 2684 2683 2682 2680 2678 2676 2675 2673 2672 2671 2669 2668 2666 2665 2664 2663 2662 2661 2659 2658 2657 2656 2656 2655 2655 2654 2654
2795 2793 2791 2789 2787 2785 2783 2781 2779 2777 2775 2773 2771 2769 2767 2766 2764 2763 2761 2760 2758 2756 2754 2752 2751 2749 2747 2745 2743 2740 2737 2735 2732 2730 2728 2726 2724 2722 2720 2717 2715 2713 2711 2710 2708 2706 2704 2702 2700 2699 2697 2696 2694 2693 2692 2691 2689 2687 2686 2684 2682 2681 2680 2678 2676 2675 2673 2672 2671 2669 2668 2667 2666 2664 2663 2661 2660 2659 2658 2657 2656 2655 2655 2654 2654 2654
2793 2791 2790 2788 2786 2784 2782 2780 2778 2776 2774 2772 2770 2768 2766 2765 2763 2761 2760 2758 2756 2755 2753 2751 2750 2748 2747 2745 2742 2740 2737 2734 2732 2730 2727 2725 2723 2721 2719 2717 2715 2712 2711 2709 2707 2706 2704 2702 2701 2700 2698 2697 2696 2694 2693 2691 2690 2688 2686 2684 2683 2681 2680 2678 2677 2675 2673 2672 2671 2669 2668 2667 2665 2664 2662 2661 2659 2658 2657 2657 2656 2655 2655 2655 2655 2654
2792 2790 2788 2786 2785 2783 2781 2779 2777 2776 2774 2772 2770 2768 2766 2763 2761 2760 2758 2756 2755 2753 2751 2750 2748 2747 2745 2744 2742 2739 2736 2734 2731 2729 2727 2725 2722 2720 2718 2716 2714 2712 2710 2709 2707 2706 2705 2703 2702 2701 2699 2698 2697 2696 2694 2692 2691 2689 2687 2685 2683 2681 2680 2679 2677 2675 2673 2672 2670 2669 2667 2666 2664 2663 2662 2661 2659 2658 2657 2656 2656 2656 2655 2655 2655 2655
2791 2789 2787 2785 2783 2782 2780 2778 2777 2775 2773 2771 2769 2767 2765 2763 2761 2759 2757 2755 2753 2752 2750 2749 2747 2746 2744 2742 2741 2738 2736 2734 2731 2729 2726 2724 2721 2719 2717 2716 2714 2712 2711 2709 2708 2706 2706 2704 2703 2702 2701 2700 2698 2696 2695 2693 2691 2689 2687 2685 2682 2680 2678 2677 2676 2674 2673 2671 2670 2668 2667 2666 2664 2663 2662 2661 2660 2659 2658 2657 2656 2656 2656 2655 2655 2655
2790 2788 2786 2784 2782 2781 2779 2778 2776 2774 2772 2771 2769 2767 2765 2763 2761 2759 2757 2755 2753 2751 2749 2748 2746 2745 2743 2741 2739 2737 2735 2733 2731 2729 2726 2724 2721 2719 2717 2715 2714 2712 2711 2710 2708 2707 2706 2706 2704 2703 2702 2701 2699 2697 2695 2693 2691 2689 2686 2685 2682 2681 2678 2676 2675 2674 2672 2671 2670 2669 2667 2666 2665 2664 2662 2661 2660 2659 2658 2658 2657 2656 2656 2656 2656 2656
2788 2786 2785 2783 2781 2780 2778 2777 2775 2774 2772 2770 2768 2766 2764 2762 2761 2759 2756 2755 2752 2751 2749 2747 2746 2744 2742 2740 2738 2736 2735 2733 2731 2728 2726 2724 2722 2720 2717 2716 2714 2713 2712 2711 2710 2708 2707 2706 2705 2704 2703 2701 2700 2697 2695 2693 2691 2688 2686 2685 2683 2682 2680 2678 2676 2675 2673 2672 2671 2669 2668 2667 2665 2664 2663 2661 2661 2659 2658 2658 2657 2657 2657 2656 2656 2656
2787 2786 2784 2782 2781 2779 2778 2776 2775 2773 2772 2770 2768 2766 2764 2762 2761 2759 2757 2755 2752 2750 2749 2747 2745 2743 2741 2739 2737 2736 2734 2732 2730 2728 2726 2724 2722 2720 2718 2716 2715 2713 2712 2711 2711 2710 2708 2707 2706 2705 2704 2702 2700 2698 2696 2694 2691 2689 2687 2685 2684 2683 2681 2680 2678 2676 2674 2672 2671 2670 2668 2667 2666 2665 2663 2662 2661 2660 2659 2658 2658 2657 2657 2657 2657 2657
2786 2784 2783 2781 2780 2779 2777 2776 2775 2773 2771 2770 2768 2766 2764 2762 2760 2758 2756 2755 2752 2750 2748 2746 2745 2743 2741 2739 2737 2735 2732 2731 2729 2727 2726 2724 2722 2720 2718 2717 2715 2714 2713 2712 2711 2711 2709 2708 2707 2706 2704 2702 2700 2698 2697 2695 2692 2690 2688 2686 2685 2683 2682 2681 2679 2677 2676 2674 2672 2670 2669 2667 2666 2665 2664 2662 2661 2660 2659 2659 2658 2658 2657 2657 2657 2657
2785 2783 2782 2781 2780 2778 2777 2776 2774 2773 2771 2770 2768 2766 2764 2762 2760 2758 2756 2754 2752 2750 2748 2746 2744 2743 2741 2739 2737 2735 2733 2731 2729 2727 2725 2724 2722 2720 2719 2717 2716 2715 2714 2714 2713 2711 2710 2709 2708 2706 2704 2703 2701 2699 2697 2696 2694 2692 2690 2688 2686 2685 2683 2681 2680 2678 2677 2675 2673 2671 2670 2668 2666 2665 2664 2663 2661 2661 2660 2659 2659 2658 2658 2658 2658 2658
2785 2783 2781 2780 2779 2778 2776 2775 2774 2772 2771 2769 2768 2766 2764 2763 2761 2759 2756 2754 2752 2750 2748 2746 2744 2742 2741 2739 2737 2735 2733 2731 2729 2727 2726 2724 2722 2721 2720 2718 2717 2716 2716 2715 2714 2712 2711 2710 2708 2706 2705 2703 2701 2700 2698 2696 2695 2694 2692 2690 2688 2686 2684 2682 2681 2679 2677 2676 2674 2673 2671 2669 2668 2666 2665 2663 2662 2661 2661 2660 2659 2659 2659 2658 2658 2658
2784 2783 2781 2780 2779 2777 2776 2775 2773 2772 2771 2769 2767 2766 2764 2762 2761 2759 2757 2755 2752 2750 2748 2746 2744 2742 2740 2739 2737 2735 2733 2731 2730 2728 2726 2725 2723 2722 2721 2719 2718 2717 2716 2716 2715 2713 2712 2710 2709 2707 2706 2704 2702 2700 2699 2697 2696 2695 2693 2691 2690 2688 2686 2683 2681 2680 2678 2676 2675 2673 2671 2670 2669 2667 2666 2665 2664 2663 2662 2661 2661 2660 2660 2659 2659 2659
2784 2783 2781 2780 2779 2777 2776 2775 2773 2772 2770 2769 2767 2765 2764 2762 2760 2758 2756 2755 2752 2750 2748 2746 2744 2742 2740 2739 2737 2735 2734 2732 2730 2728 2727 2726 2724 2723 2721 2720 2719 2718 2717 2716 2716 2714 2713 2711 2710 2708 2706 2705 2703 2701 2700 2698 2697 2695 2694 2692 2691 2689 2686 2684 2682 2681 2679 2677 2676 2674 2672 2671 2669 2668 2667 2666 2665 2664 2664 2663 2662 2661 2661 2660 2660 2660